Memphis, TN

12:52 PM CDT on June 26, 2017 (GMT -0500)
Memphis International

Weather History for KMEM - May, 2012

Change the Weather History Date:

Friday, May 18, 2012

  Actual Average Record
Temperature  
Mean Temperature 77 °F 72 °F  
Max Temperature 91 °F 82 °F 93 °F (1951)
Min Temperature 63 °F 63 °F 47 °F (2002)
Degree Days  
Heating Degree Days 0 0  
Month to date heating degree days 0 17  
Since 1 July heating degree days 2171 2962  
Cooling Degree Days 12 8  
Month to date cooling degree days 175 104  
Year to date cooling degree days 397 199  
Growing Degree Days 27 (Base 50)    
Moisture  
Dew Point 58 °F    
Average Humidity 53    
Maximum Humidity 73    
Minimum Humidity 32    
Precipitation  
Precipitation 0.00 in 0.16 in 2.69 in (1930)
Month to date precipitation 1.08 3.23  
Year to date precipitation 11.23 22.26  
Snow  
Snow 0.00 in 0.00 in - ()
Month to date snowfall 0.0 0.0  
Since 1 July snowfall 1.4 3.8  
Snow Depth 0.00 in    
Sea Level Pressure  
Sea Level Pressure 29.96 in    
Wind  
Wind Speed 5 mph (South)    
Max Wind Speed 12 mph    
Max Gust Speed 18 mph    
Visibility 10 miles    
Events      
T = Trace of Precipitation, MM = Missing Value Source: NWS Daily Summary

Daily Weather History Graph

Daily Weather History Graph

Search for Another Location

Airport or City:

Trip Planner

Search our weather history database for the weather conditions in past years. The results will help you decide how hot, cold, wet, or windy it might be!

Date:

Astronomy

May. 18, 2012 Rise Set
Actual Time 5:53 AM CDT 7:59 PM CDT
Civil Twilight 5:25 AM CDT 8:27 PM CDT
Nautical Twilight 4:50 AM CDT 9:02 PM CDT
Astronomical Twilight 4:13 AM CDT 9:39 PM CDT
Moon 4:18 AM CDT (5/18) 6:10 PM CDT (5/18)
Length of Visible Light 15h 02m
Length of Day
14h 05m
Waning Crescent, 5% of the Moon is Illuminated
May 18
Waning Crescent
May 20
New
May 28
First Quarter
Jun 4
Full
Jun 11
Last Quarter

Hourly Weather History & Observations

Time (CDT) Temp. Heat Index Dew Point Humidity Pressure Visibility Wind Dir Wind Speed Gust Speed Precip Events Conditions
12:54 AM 72.0 °F - 55.9 °F 57% 29.94 in 10.0 mi SE 3.5 mph - N/A   Clear
1:54 AM 69.1 °F - 57.0 °F 65% 29.94 in 10.0 mi Calm Calm - N/A   Clear
2:54 AM 66.9 °F - 57.0 °F 70% 29.94 in 10.0 mi Calm Calm - N/A   Clear
3:54 AM 70.0 °F - 57.9 °F 65% 29.95 in 10.0 mi SE 3.5 mph - N/A   Clear
4:54 AM 71.1 °F - 57.9 °F 63% 29.95 in 10.0 mi SE 5.8 mph - N/A   Clear
5:54 AM 66.9 °F - 57.9 °F 73% 29.96 in 10.0 mi Calm Calm - N/A   Partly Cloudy
6:54 AM 68.0 °F - 59.0 °F 73% 29.97 in 10.0 mi Calm Calm - N/A   Scattered Clouds
7:54 AM 73.0 °F - 61.0 °F 66% 29.99 in 10.0 mi Variable 4.6 mph - N/A   Partly Cloudy
8:54 AM 77.0 °F - 61.0 °F 58% 30.00 in 10.0 mi SSW 3.5 mph - N/A   Partly Cloudy
9:54 AM 81.0 °F 81.3 °F 59.0 °F 47% 30.00 in 10.0 mi SSW 3.5 mph - N/A   Partly Cloudy
10:54 AM 84.0 °F 83.8 °F 59.0 °F 43% 29.99 in 10.0 mi SW 3.5 mph - N/A   Scattered Clouds
11:54 AM 87.1 °F 85.9 °F 57.0 °F 36% 29.99 in 10.0 mi Calm Calm - N/A   Scattered Clouds
12:54 PM 84.9 °F 83.3 °F 54.0 °F 34% 29.97 in 10.0 mi Variable 5.8 mph - N/A   Scattered Clouds
1:54 PM 89.1 °F 87.1 °F 55.0 °F 31% 29.96 in 10.0 mi NNW 4.6 mph - N/A   Scattered Clouds
2:54 PM 89.1 °F 87.1 °F 55.0 °F 31% 29.94 in 10.0 mi Variable 5.8 mph - N/A   Scattered Clouds
3:54 PM 90.0 °F 87.9 °F 55.0 °F 30% 29.93 in 10.0 mi WSW 4.6 mph - N/A   Scattered Clouds
4:54 PM 87.1 °F 85.9 °F 57.0 °F 36% 29.92 in 10.0 mi WSW 5.8 mph - N/A   Scattered Clouds
5:54 PM 86.0 °F 84.9 °F 57.0 °F 37% 29.92 in 10.0 mi SW 4.6 mph - N/A   Mostly Cloudy
6:54 PM 86.0 °F 84.7 °F 55.9 °F 36% 29.92 in 10.0 mi South 9.2 mph - N/A   Scattered Clouds
7:54 PM 84.9 °F 83.7 °F 55.9 °F 37% 29.93 in 10.0 mi SE 10.4 mph - N/A   Scattered Clouds
8:54 PM 82.9 °F 82.6 °F 57.9 °F 42% 29.94 in 10.0 mi SSE 11.5 mph - N/A   Mostly Cloudy
9:54 PM 79.0 °F - 61.0 °F 54% 29.96 in 10.0 mi South 8.1 mph - N/A   Scattered Clouds
10:54 PM 77.0 °F - 62.1 °F 60% 29.98 in 10.0 mi South 5.8 mph - N/A   Partly Cloudy
11:54 PM 75.0 °F - 63.0 °F 66% 29.97 in 10.0 mi South 8.1 mph - N/A   Partly Cloudy